Location: Unspecified
(40.9908°N, 0.0000°E)
Time: 03:17:47
(UTC+00:00)

ISS - Visible Passes

Search period start: 26 May 2019 00:00
Search period end: 05 June 2019 00:00
Orbit: 408 x 418 km, 51.6° (Epoch: 26 May)

Date Brightness Start Highest point End Pass type
(mag) Time Alt. Az. Time Alt. Az. Time Alt. Az.
26 May -0.8 20:36:47 10° NW 20:38:32 13° N 20:40:17 10° NNE visible
26 May -1.4 22:13:40 10° NNW 22:16:11 19° NNE 22:17:12 17° NE visible
26 May -0.6 23:49:54 10° NW 23:50:01 11° NW 23:50:01 11° NW visible
27 May -1.0 21:24:18 10° NNW 21:26:28 16° NNE 21:28:38 10° NE visible
27 May -1.5 23:00:29 10° NW 23:02:06 25° NNW 23:02:06 25° NNW visible
28 May -0.9 20:34:50 10° NNW 20:36:42 14° N 20:38:35 10° NE visible
28 May -2.3 22:11:06 10° NW 22:14:10 32° NNE 22:14:12 32° NNE visible
29 May -1.7 21:21:45 10° NW 21:24:30 23° NNE 21:26:19 15° ENE visible
29 May -1.3 22:58:05 10° WNW 22:59:08 18° WNW 22:59:08 18° WNW visible
30 May -1.3 20:32:23 10° NNW 20:34:47 18° NNE 20:37:11 10° ENE visible
30 May -3.0 22:08:34 10° NW 22:11:16 53° NNW 22:11:16 53° NNW visible
31 May -2.9 21:19:07 10° NW 21:22:20 43° NNE 21:23:27 31° ENE visible
31 May -0.8 22:56:08 10° W 22:56:15 11° W 22:56:15 11° W visible
01 Jun -2.2 20:29:43 10° NW 20:32:41 29° NNE 20:35:38 10° E visible
01 Jun -2.4 22:06:16 10° WNW 22:08:27 31° W 22:08:27 31° W visible
02 Jun -3.8 21:16:36 10° WNW 21:19:57 76° SW 21:20:41 50° SE visible
03 Jun -3.5 20:27:04 10° NW 20:30:23 61° NNE 20:32:57 16° ESE visible
03 Jun -1.3 22:04:40 10° W 22:05:47 14° WSW 22:05:47 14° WSW visible
04 Jun -2.4 21:14:27 10° WNW 21:17:19 27° SW 21:18:05 24° SSW visible
